This is the latest recevied weather packets stored in our database for station/object W0VI. If no packets are shown the sender has not sent any weather packets the latest 10 day(s).
| Time | Temp. | Humidity | Pressure | Rain* | Wind** | Luminosity | Snow |
|---|---|---|---|---|---|---|---|
| 1777591453 | 10° C | 42% | 1015.9 hPa | 0 mm | - | 116 W/m² | - |
| 1777591149 | 10.56° C | 41% | 1016.1 hPa | 0 mm | - | 125 W/m² | - |
| 1777590843 | 10° C | 42% | 1016.1 hPa | 0 mm | - | 165 W/m² | - |
| 1777590541 | 10° C | 42% | 1016.1 hPa | 0 mm | - | 132 W/m² | - |
| 1777590236 | 10° C | 43% | 1016.1 hPa | 0 mm | - | 125 W/m² | - |
| 1777589934 | 10° C | 41% | 1016.2 hPa | 0 mm | - | 131 W/m² | - |
| 1777589630 | 10.56° C | 42% | 1016.2 hPa | 0 mm | - | 135 W/m² | - |
| 1777589327 | 10° C | 44% | 1016.3 hPa | 0 mm | - | 134 W/m² | - |
| 1777589025 | 10° C | 42% | 1016 hPa | 0 mm | - | 120 W/m² | - |
| 1777588721 | 10° C | 42% | 1016.3 hPa | 0 mm | - | 145 W/m² | - |
| 1777588416 | 10° C | 42% | 1016.3 hPa | 0 mm | - | 123 W/m² | - |
| 1777588112 | 10° C | 42% | 1016.1 hPa | 0 mm | - | 121 W/m² | - |
| 1777587808 | 10.56° C | 41% | 1016 hPa | 0 mm | - | 140 W/m² | - |
| 1777587508 | 11.11° C | 41% | 1016.5 hPa | 0 mm | - | 315 W/m² | - |
| 1777587204 | 11.11° C | 41% | 1016.3 hPa | 0 mm | - | 390 W/m² | - |
| 1777586899 | 10.56° C | 42% | 1016.5 hPa | 0 mm | - | 213 W/m² | - |
| 1777586596 | 10.56° C | 41% | 1016.6 hPa | 0 mm | - | 385 W/m² | - |
| 1777586291 | 10° C | 42% | 1016.2 hPa | 0 mm | - | 255 W/m² | - |
| 1777585989 | 10.56° C | 42% | 1016.3 hPa | 0 mm | - | 182 W/m² | - |
| 1777585684 | 10.56° C | 43% | 1016.3 hPa | 0 mm | - | 190 W/m² | - |
| 1777585379 | 10° C | 42% | 1016.5 hPa | 0 mm | - | 190 W/m² | - |
| 1777585074 | 10° C | 42% | 1016.2 hPa | 0 mm | - | 182 W/m² | - |
| 1777584770 | 10.56° C | 41% | 1016.7 hPa | 0 mm | - | 208 W/m² | - |
| 1777584468 | 11.11° C | 40% | 1016.5 hPa | 0 mm | - | 206 W/m² | - |
| 1777584165 | 11.11° C | 41% | 1016.5 hPa | 0 mm | - | 559 W/m² | - |
* Rain latest hour (hover to see other rain measurements)
** Current wind speed in m/s (hover to see current wind gust speed)